HAWK-6B

Last updated on Sun Jun 21 2026 00:03:43 GMT+0000 (Coordinated Universal Time)

1 55324U 23011A 26171.46186860 .00004005 00000+0 17506-3 0 9992 2 55324 40.4999 332.9712 0001801 24.0785 336.0108 15.22959188188344
UTC large
Height (km)
Speed (km/s)
/
Latitude / Longitude
Inclination (degrees)
Orbital Period (minutes)
Azimuth
Elevation
Range (km)
Doppler Factor

Next 0 passes for location: London (51.5072 / 0.1276)

No passes found over London.
HAWK-6B